SCOUT X-4 DEB

基本信息
目录编号:
724
目录名称:
SCOUT X-4 DEB
国际标识:
1963-053E
轨道中心:
EARTH
物体状态:
已陨落(2025-06-04)
发射日期:
1963-12-19 UTC
轨道信息
数据来源: 国际轨道数据
星历时间: 2025-05-31T14:38:37+0800
半长轴: 6653.228km
偏心率: 0.0025948
轨道倾角: 78.522°
近地点辐角: 325.688°
升交点赤经: 237.177°
平近点角: 34.271°
近地点: 257.829km
远地点: 292.357km
周期: 90.014分钟
每日圈数: 15.997576
详细信息
发射场:
AFWTR
轨道高度:
LEO
数据来源:
AOE Integration Group
参考系:
TEME
时间系统:
UTC
历元类型:
SGP4
2D轨道图
3D轨道图
轨道高度分析图
轨道倾角分析图
轨道综合分析图
查看轨道综合分析图